KF0FUL Weather Reports


time (UTC)temp
F
wind
direction
speed
knots
gust
knots
rain 1hr
in
rain 24hr
in
rain mn
in
humidity
%
barometer
mb
20260505025237 74 310 3.5 5.2 0.00 0.00 0.00 63 1003.0
20260505024737 74 310 3.5 5.2 0.00 0.00 0.00 63 1003.0
20260505024237 74 311 3.5 6.1 0.00 0.00 0.00 63 1003.0
20260505023738 75 314 3.5 5.2 0.00 0.00 0.00 62 1002.0
20260505022759 75 312 2.6 5.2 0.00 0.00 0.00 61 1002.0
20260505022237 75 313 3.5 5.2 0.00 0.00 0.00 61 1002.0
20260505021737 75 311 2.6 3.5 0.00 0.00 0.00 60 1002.0
20260505021237 75 313 2.6 4.3 0.00 0.00 0.00 60 1002.0
20260505020737 75 311 3.5 5.2 0.00 0.00 0.00 59 1002.0
20260505020237 76 311 4.3 7.0 0.00 0.00 0.00 58 1003.0
20260505015737 76 311 3.5 6.1 0.00 0.00 0.00 58 1003.0
20260505015237 76 308 5.2 7.8 0.00 0.00 0.00 57 1002.0
20260505014739 76 310 5.2 8.7 0.00 0.00 0.00 57 1002.0
20260505014238 76 303 3.5 5.2 0.00 0.00 0.00 57 1002.0
20260505013737 76 306 3.5 7.0 0.00 0.00 0.00 56 1002.0
20260505013237 76 309 4.3 6.1 0.00 0.00 0.00 56 1002.0
20260505012737 77 309 3.5 5.2 0.00 0.00 0.00 55 1002.0
20260505012237 77 309 3.5 5.2 0.00 0.00 0.00 54 1002.0
20260505011737 77 310 4.3 6.1 0.00 0.00 0.00 54 1001.0
20260505011237 77 310 3.5 6.1 0.00 0.00 0.00 53 1001.0
20260505010737 77 308 5.2 7.0 0.00 0.00 0.00 53 1001.0
20260505010238 78 310 4.3 6.1 0.00 0.00 0.00 53 1001.0
20260505005738 78 306 4.3 7.0 0.00 0.00 0.00 52 1001.0
20260505005237 78 304 4.3 5.2 0.00 0.00 0.00 52 1001.0
20260505004737 78 305 3.5 6.1 0.00 0.00 0.00 51 1001.0
20260505004237 78 309 4.3 6.1 0.00 0.00 0.00 51 1001.0
20260505003738 79 306 5.2 7.8 0.00 0.00 0.00 50 1001.0
20260505003238 79 306 4.3 7.8 0.00 0.00 0.00 49 1001.0
20260505002737 79 308 5.2 8.7 0.00 0.00 0.00 48 1001.0
20260505002238 79 309 4.3 6.1 0.00 0.00 0.00 48 1001.0
20260505001737 79 311 5.2 7.8 0.00 0.00 0.00 47 1001.0
20260505001239 80 309 5.2 7.8 0.00 0.00 0.00 47 1001.0
20260505000738 80 312 3.5 5.2 0.00 0.00 0.00 47 1002.0
20260505000238 80 313 3.5 5.2 0.00 0.00 0.00 47 1002.0
20260504235737 80 312 3.5 6.1 0.00 0.00 0.00 47 1002.0
20260504235237 80 313 4.3 6.1 0.00 0.00 0.00 47 1002.0
20260504234737 80 312 3.5 5.2 0.00 0.00 0.00 48 1002.0
20260504234238 80 311 3.5 6.1 0.00 0.00 0.00 47 1002.0
20260504233739 80 310 5.2 7.8 0.00 0.00 0.00 47 1002.0
20260504233237 81 311 5.2 7.0 0.00 0.00 0.00 46 1002.0
20260504232737 81 312 4.3 5.2 0.00 0.00 0.00 46 1002.0
20260504232238 81 313 3.5 4.3 0.00 0.00 0.00 46 1002.0
20260504231737 81 313 3.5 5.2 0.00 0.00 0.00 46 1002.0
20260504231237 82 312 7.0 9.6 0.00 0.00 0.00 46 1002.0
20260504230737 82 311 7.8 9.6 0.00 0.00 0.00 46 1002.0
20260504230238 82 308 7.8 11.3 0.00 0.00 0.00 44 1002.0
20260504225737 82 307 7.8 9.6 0.00 0.00 0.00 45 1002.0
20260504225238 82 312 5.2 7.8 0.00 0.00 0.00 45 1002.0
20260504224738 82 313 6.1 8.7 0.00 0.00 0.00 45 1002.0
20260504224237 82 311 7.8 9.6 0.00 0.00 0.00 44 1002.0
20260504223740 83 309 7.8 9.6 0.00 0.00 0.00 43 1002.0
20260504223238 83 314 5.2 9.6 0.00 0.00 0.00 43 1002.0
20260504222738 83 309 5.2 7.8 0.00 0.00 0.00 43 1001.0
20260504222237 83 312 5.2 9.6 0.00 0.00 0.00 43 1001.0
20260504221737 83 313 5.2 7.8 0.00 0.00 0.00 43 1001.0
20260504221237 83 313 3.5 6.1 0.00 0.00 0.00 42 1001.0
20260504220737 84 310 6.1 8.7 0.00 0.00 0.00 42 1002.0
20260504220237 84 309 5.2 8.7 0.00 0.00 0.00 42 1002.0
20260504215738 85 311 5.2 7.0 0.00 0.00 0.00 42 1002.0
20260504215237 85 316 3.5 5.2 0.00 0.00 0.00 41 1002.0
20260504214738 85 310 7.8 10.4 0.00 0.00 0.00 41 1002.0
20260504214237 86 313 7.0 9.6 0.00 0.00 0.00 39 1002.0
20260504213737 86 304 7.8 10.4 0.00 0.00 0.00 40 1002.0
20260504213237 87 306 4.3 6.1 0.00 0.00 0.00 39 1002.0
20260504212737 87 300 5.2 8.7 0.00 0.00 0.00 37 1002.0
20260504212238 88 307 4.3 7.0 0.00 0.00 0.00 36 1002.0
20260504211738 88 314 3.5 5.2 0.00 0.00 0.00 35 1002.0
20260504211237 88 313 3.5 5.2 0.00 0.00 0.00 35 1002.0
20260504210737 88 310 3.5 5.2 0.00 0.00 0.00 35 1002.0
20260504210237 88 307 2.6 3.5 0.00 0.00 0.00 34 1002.0
20260504205738 88 311 2.6 3.5 0.00 0.00 0.00 36 1002.0
20260504205237 88 312 2.6 3.5 0.00 0.00 0.00 34 1002.0
20260504204739 87 315 3.5 4.3 0.00 0.00 0.00 36 1002.0
20260504204238 87 313 3.5 4.3 0.00 0.00 0.00 36 1002.0
20260504203737 87 312 3.5 5.2 0.00 0.00 0.00 36 1002.0
20260504203237 86 313 1.7 2.6 0.00 0.00 0.00 35 1002.0
20260504202737 86 307 3.5 4.3 0.00 0.00 0.00 37 1003.0
20260504202238 87 305 3.5 5.2 0.00 0.00 0.00 36 1003.0
20260504201738 87 303 2.6 3.5 0.00 0.00 0.00 37 1003.0
20260504201238 87 292 1.7 2.6 0.00 0.00 0.00 38 1003.0
20260504200738 87 307 2.6 3.5 0.00 0.00 0.00 37 1003.0
20260504200238 86 300 3.5 4.3 0.00 0.00 0.00 39 1003.0
20260504195737 86 302 3.5 4.3 0.00 0.00 0.00 38 1003.0
20260504195237 85 310 2.6 3.5 0.00 0.00 0.00 38 1003.0
20260504194739 85 305 3.5 4.3 0.00 0.00 0.00 38 1003.0
20260504194238 85 310 2.6 6.1 0.00 0.00 0.00 40 1003.0
20260504193737 84 310 2.6 4.3 0.00 0.00 0.00 41 1003.0
20260504193237 84 306 4.3 6.1 0.00 0.00 0.00 39 1004.0
20260504192738 83 337 3.5 7.8 0.00 0.00 0.00 43 1004.0
20260504192237 83 30 7.8 9.6 0.00 0.00 0.00 40 1004.0
20260504191737 82 16 5.2 13.9 0.00 0.00 0.00 42 1004.0
20260504191238 82 19 6.1 11.3 0.00 0.00 0.00 42 1004.0
20260504190738 83 11 6.1 11.3 0.00 0.00 0.00 40 1004.0
20260504190237 83 357 6.1 9.6 0.00 0.00 0.00 41 1004.0
20260504185737 83 5 7.0 10.4 0.00 0.00 0.00 40 1004.0
20260504185238 81 2 6.1 9.6 0.00 0.00 0.00 43 1004.0
20260504184737 81 359 5.2 9.6 0.00 0.00 0.00 43 1004.0
20260504184237 82 340 5.2 7.8 0.00 0.00 0.00 42 1004.0
20260504183738 82 323 3.5 5.2 0.00 0.00 0.00 42 1004.0
20260504183238 81 312 3.5 6.1 0.00 0.00 0.00 41 1004.0
20260504182737 81 328 3.5 8.7 0.00 0.00 0.00 43 1004.0
20260504182237 81 314 5.2 13.0 0.00 0.00 0.00 41 1004.0
20260504181238 79 308 2.6 4.3 0.00 0.00 0.00 47 1004.0
20260504180737 79 308 3.5 4.3 0.00 0.00 0.00 44 1004.0
20260504180237 79 304 3.5 4.3 0.00 0.00 0.00 44 1005.0
20260504175737 79 306 3.5 5.2 0.00 0.00 0.00 45 1005.0
20260504175237 79 304 6.1 7.8 0.00 0.00 0.00 43 1005.0
20260504174737 78 303 4.3 5.2 0.00 0.00 0.00 46 1005.0
20260504174237 78 311 3.5 5.2 0.00 0.00 0.00 44 1005.0
20260504173738 78 309 3.5 5.2 0.00 0.00 0.00 43 1005.0
20260504173238 77 306 3.5 3.5 0.00 0.00 0.00 46 1005.0
20260504172738 78 312 3.5 5.2 0.00 0.00 0.00 45 1005.0
20260504172238 77 308 3.5 5.2 0.00 0.00 0.00 46 1005.0
20260504171738 77 309 3.5 4.3 0.00 0.00 0.00 47 1005.0
20260504171238 76 313 3.5 5.2 0.00 0.00 0.00 48 1005.0
20260504170737 76 311 4.3 6.1 0.00 0.00 0.00 47 1005.0
20260504170237 76 311 3.5 5.2 0.00 0.00 0.00 49 1005.0
20260504160240 74 302 5.2 7.0 0.00 0.00 0.00 50 1005.0
20260504150739 70 301 7.0 9.6 0.00 0.00 0.00 53 1005.0
20260504150238 70 293 7.8 11.3 0.00 0.00 0.00 53 1005.0
20260504141237 67 304 6.1 7.8 0.00 0.00 0.00 57 1005.0
20260504140738 67 302 6.1 9.6 0.00 0.00 0.00 57 1005.0
20260504140238 67 304 3.5 4.3 0.00 0.00 0.00 57 1005.0
20260504130738 64 303 5.2 7.8 0.00 0.00 0.00 60 1005.0
20260504130238 63 293 5.2 9.6 0.00 0.00 0.00 60 1005.0
20260504120237 62 304 5.2 6.1 0.00 0.00 0.00 61 1005.0
20260504110238 62 305 3.5 7.0 0.00 0.00 0.00 58 1005.0
20260504100238 64 301 7.8 9.6 0.00 0.00 0.00 54 1005.0
20260504081738 66 307 7.8 8.7 0.00 0.00 0.00 50 1006.0
20260504081238 66 304 7.0 8.7 0.00 0.00 0.00 50 1006.0
20260504080738 67 305 6.1 8.7 0.00 0.00 0.00 49 1006.0
20260504080240 67 301 7.0 9.6 0.00 0.00 0.00 49 1006.0
20260504070238 68 299 7.0 10.4 0.00 0.00 0.00 47 1007.0
20260504060237 70 302 6.1 8.7 0.00 0.00 0.00 45 1007.0
20260504050738 71 310 6.1 9.6 0.00 0.00 0.00 43 1007.0
20260504050237 71 302 7.8 10.4 0.00 0.00 0.00 42 1007.0
20260504045738 71 301 7.0 9.6 0.00 0.00 0.00 42 1007.0
20260504045237 71 309 6.1 7.8 0.00 0.00 0.00 42 1007.0
20260504044738 71 304 7.0 9.6 0.00 0.00 0.00 41 1007.0
20260504044237 72 303 10.4 12.2 0.00 0.00 0.00 40 1007.0
20260504043737 72 309 7.0 10.4 0.00 0.00 0.00 40 1007.0
20260504043238 71 309 7.8 10.4 0.00 0.00 0.00 40 1007.0
20260504042737 71 298 8.7 10.4 0.00 0.00 0.00 40 1007.0
20260504042237 71 304 8.7 11.3 0.00 0.00 0.00 39 1007.0
20260504041737 71 306 7.0 11.3 0.00 0.00 0.00 40 1007.0
20260504041238 71 306 7.8 11.3 0.00 0.00 0.00 39 1008.0
20260504040737 71 308 4.3 10.4 0.00 0.00 0.00 40 1008.0
20260504040237 71 312 6.1 9.6 0.00 0.00 0.00 40 1008.0
20260504035329 71 308 6.1 8.7 0.00 0.00 0.00 39 1008.0
20260504034738 72 301 7.0 9.6 0.00 0.00 0.00 38 1008.0
20260504034237 72 310 7.0 9.6 0.00 0.00 0.00 38 1008.0
20260504033737 72 301 7.0 11.3 0.00 0.00 0.00 38 1008.0
20260504033238 71 307 5.2 7.0 0.00 0.00 0.00 38 1008.0
20260504032737 72 310 4.3 6.1 0.00 0.00 0.00 38 1008.0
20260504032237 72 308 5.2 7.8 0.00 0.00 0.00 38 1008.0
20260504031737 72 303 4.3 7.0 0.00 0.00 0.00 37 1008.0
20260504031237 73 306 5.2 7.0 0.00 0.00 0.00 37 1008.0
20260504030737 73 305 5.2 7.8 0.00 0.00 0.00 36 1008.0
20260504030238 74 307 5.2 7.8 0.00 0.00 0.00 35 1008.0
20260504025738 74 312 4.3 7.8 0.00 0.00 0.00 35 1008.0